QPF
0.08 0.06 0.04 0.05 0.05 0.04 0.03 0.04 0.04 0.05 0.05 0.05 0.04 0.05 0.04 0.04 0.04 0.04 0.06 0.07 0.06 0.05 0.08 0.08 0.06 0.05 0.05 0.06 0.05 0.04 0.04 0.03 0.02 0.03 0.02 0.02 0.03 0.04 0.04 0.04 0.04 0.03 0.03
0.10 0.06 0.03 0.04 0.04 0.03 0.04 0.03 0.04 0.03 0.03 0.03 0.03 0.04 0.04 0.04 0.05 0.05 0.04 0.04 0.05 0.05 0.06 0.08 0.07 0.06 0.07 0.07 0.06 0.04 0.05 0.04 0.04 0.04 0.03 0.03 0.03 0.04 0.04 0.04 0.04 0.03 0.03
0.06 0.05 0.04 0.03 0.03 0.04 0.04 0.04 0.04 0.03 0.04 0.04 0.05 0.04 0.03 0.02 0.06 0.08 0.06 0.03 0.03 0.05 0.05 0.06 0.07 0.07 0.07 0.06 0.06 0.05 0.06 0.07 0.06 0.04 0.03 0.03 0.03 0.04 0.04 0.04 0.04 0.04 0.03
0.05 0.07 0.07 0.05 0.04 0.05 0.06 0.05 0.06 0.05 0.05 0.07 0.06 0.04 0.03 0.03 0.05 0.06 0.06 0.05 0.04 0.05 0.05 0.05 0.07 0.07 0.06 0.07 0.07 0.07 0.09 0.09 0.06 0.05 0.05 0.04 0.04 0.05 0.03 0.03 0.02 0.03 0.03
0.08 0.09 0.07 0.05 0.07 0.07 0.07 0.07 0.06 0.05 0.06 0.08 0.06 0.05 0.05 0.07 0.06 0.06 0.06 0.05 0.05 0.05 0.06 0.06 0.07 0.06 0.07 0.09 0.09 0.10 0.11 0.09 0.07 0.07 0.06 0.05 0.04 0.04 0.03 0.02 0.02 0.03 0.02
0.05 0.05 0.05 0.06 0.07 0.09 0.09 0.09 0.09 0.07 0.05 0.06 0.07 0.07 0.06 0.08 0.08 0.08 0.08 0.07 0.07 0.07 0.06 0.06 0.06 0.08 0.09 0.09 0.10 0.10 0.13 0.09 0.06 0.06 0.05 0.05 0.05 0.05 0.05 0.04 0.04 0.03 0.02
0.05 0.05 0.05 0.07 0.09 0.11 0.08 0.07 0.08 0.06 0.04 0.04 0.07 0.06 0.07 0.12 0.10 0.08 0.09 0.10 0.11 0.10 0.06 0.06 0.06 0.07 0.09 0.08 0.06 0.07 0.10 0.10 0.08 0.06 0.04 0.04 0.03 0.03 0.02 0.02 0.02 0.02 0.02
0.05 0.05 0.04 0.05 0.06 0.05 0.04 0.05 0.06 0.05 0.04 0.05 0.06 0.05 0.05 0.12 0.09 0.08 0.09 0.12 0.13 0.11 0.07 0.06 0.05 0.05 0.04 0.06 0.05 0.03 0.05 0.07 0.08 0.06 0.04 0.04 0.04 0.03 0.02 0.02 0.02 0.01 0.01
0.04 0.04 0.04 0.04 0.04 0.05 0.04 0.03 0.04 0.05 0.06 0.05 0.05 0.04 0.02 0.02 0.03 0.05 0.06 0.08 0.11 0.16 0.12 0.07 0.06 0.06 0.05 0.06 0.05 0.05 0.05 0.06 0.05 0.05 0.04 0.04 0.03 0.03 0.02 0.02 0.02 0.02 0.01
0.06 0.06 0.06 0.04 0.04 0.05 0.03 0.03 0.04 0.04 0.05 0.04 0.03 0.03 0.03 0.02 0.02 0.02 0.04 0.05 0.07 0.09 0.06 0.06 0.06 0.05 0.05 0.04 0.03 0.05 0.04 0.04 0.04 0.03 0.03 0.02 0.02 0.01 0.01 0.01 0.01 0.02 0.02
0.10 0.10 0.07 0.05 0.04 0.04 0.04 0.03 0.03 0.04 0.03 0.04 0.04 0.03 0.04 0.03 0.02 0.02 0.04 0.06 0.08 0.06 0.04 0.03 0.03 0.03 0.04 0.04 0.03 0.02 0.04 0.06 0.05 0.04 0.03 0.01 0.01 0.01 0.01 0.01 0.02 0.02 0.03
0.09 0.07 0.06 0.04 0.03 0.03 0.04 0.04 0.04 0.03 0.04 0.05 0.05 0.04 0.04 0.04 0.04 0.03 0.04 0.05 0.06 0.08 0.06 0.04 0.04 0.03 0.03 0.02 0.02 0.02 0.04 0.07 0.04 0.02 0.02 0.01 0.01 0.01 0.02 0.03 0.03 0.03 0.04
0.04 0.05 0.05 0.03 0.02 0.03 0.04 0.03 0.04 0.05 0.05 0.05 0.05 0.05 0.05 0.06 0.06 0.03 0.03 0.03 0.02 0.04 0.07 0.07 0.05 0.05 0.04 0.03 0.02 0.02 0.02 0.02 0.01 0.02 0.01 0.01 0.01 0.01 0.01 0.02 0.03 0.03 0.04
0.02 0.02 0.03 0.03 0.02 0.02 0.02 0.03 0.04 0.04 0.05 0.06 0.07 0.05 0.04 0.04 0.05 0.03 0.02 0.03 0.02 0.03 0.05 0.05 0.04 0.04 0.06 0.04 0.01 0.01 0.01 0.01 0.01 0.02 0.02 0.01 0.02 0.01 0.01 0.02 0.02 0.02 0.02
0.02 0.02 0.02 0.02 0.01 0.01 0.01 0.02 0.03 0.03 0.03 0.04 0.04 0.04 0.04 0.04 0.04 0.04 0.02 0.03 0.02 0.02 0.03 0.02 0.02 0.02 0.03 0.03 0.01 0.01 0.01 0.01 0.01 0.01 0.02 0.03 0.03 0.02 0.02 0.02 0.02 0.02 0.01
0.02 0.02 0.02 0.02 0.01 0.01 0.01 0.02 0.02 0.02 0.02 0.04 0.04 0.04 0.04 0.04 0.05 0.06 0.04 0.03 0.02 0.02 0.02 0.02 0.02 0.03 0.03 0.04 0.02 0.02 0.03 0.02 0.03 0.03 0.03 0.03 0.04 0.02 0.02 0.01 0.01 0.01 0.01
0.02 0.02 0.02 0.01 0.01 0.01 0.02 0.02 0.04 0.03 0.02 0.02 0.02 0.04 0.06 0.05 0.05 0.05 0.04 0.04 0.04 0.03 0.02 0.02 0.02 0.02 0.03 0.03 0.03 0.04 0.04 0.04 0.03 0.04 0.04 0.03 0.03 0.02 0.02 0.02 0.02 0.01 0.01
0.03 0.03 0.02 0.02 0.02 0.01 0.01 0.02 0.03 0.03 0.02 0.02 0.01 0.03 0.05 0.04 0.04 0.04 0.04 0.03 0.03 0.02 0.01 0.01 0.01 0.01 0.01 0.02 0.03 0.03 0.03 0.03 0.04 0.03 0.03 0.03 0.02 0.03 0.03 0.02 0.02 0.02 0.02
0.02 0.01 0.01 0.01 0.02 0.01 0.01 0.02 0.03 0.03 0.02 0.01 0.01 0.01 0.03 0.04 0.04 0.04 0.03 0.02 0.02 0.02 0.01 0.01 0.01 0.01 0.02 0.03 0.03 0.04 0.05 0.04 0.03 0.02 0.02 0.02 0.02 0.02 0.02 0.02 0.02 0.02 0.02
0.02 0.01 0.01 0.01 0.01 0.01 0.01 0.02 0.02 0.02 0.01 0.01 0.00 0.01 0.02 0.03 0.04 0.06 0.05 0.03 0.03 0.03 0.03 0.02 0.02 0.03 0.04 0.05 0.06 0.04 0.04 0.04 0.04 0.02 0.01 0.01 0.01 0.01 0.02 0.02 0.02 0.02 0.02
0.02 0.02 0.01 0.01 0.01 0.01 0.02 0.02 0.01 0.01 0.00 0.00 0.01 0.01 0.02 0.03 0.05 0.05 0.04 0.04 0.04 0.03 0.03 0.03 0.03 0.04 0.04 0.05 0.05 0.05 0.04 0.04 0.03 0.02 0.01 0.01 0.01 0.01 0.01 0.02 0.02 0.02 0.02
0.02 0.02 0.02 0.02 0.02 0.02 0.02 0.01 0.01 0.00 0.01 0.01 0.01 0.01 0.01 0.02 0.02 0.03 0.04 0.04 0.03 0.03 0.03 0.03 0.04 0.04 0.03 0.03 0.04 0.05 0.07 0.06 0.04 0.03 0.02 0.02 0.01 0.01 0.01 0.01 0.01 0.01 0.01
0.03 0.02 0.02 0.01 0.01 0.01 0.02 0.02 0.01 0.01 0.01 0.00 0.01 0.01 0.01 0.01 0.01 0.01 0.03 0.04 0.03 0.03 0.03 0.03 0.02 0.02 0.03 0.02 0.03 0.04 0.06 0.07 0.05 0.03 0.03 0.03 0.02 0.01 0.01 0.01 0.01 0.01 0.01
0.03 0.02 0.01 0.01 0.01 0.01 0.01 0.01 0.01 0.00 0.00 0.00 0.00 0.00 0.01 0.01 0.01 0.01 0.02 0.03 0.03 0.03 0.04 0.03 0.02 0.02 0.02 0.02 0.03 0.03 0.04 0.06 0.07 0.06 0.04 0.03 0.03 0.02 0.02 0.01 0.01 0.01 0.01
0.02 0.02 0.02 0.03 0.02 0.01 0.01 0.01 0.00 0.00 0.00 0.00 0.00 0.00 0.01 0.01 0.01 0.02 0.02 0.01 0.01 0.02 0.03 0.03 0.02 0.02 0.02 0.02 0.02 0.03 0.03 0.04 0.04 0.06 0.05 0.03 0.02 0.02 0.02 0.01 0.01 0.01 0.01
0.02 0.02 0.02 0.02 0.02 0.01 0.01 0.01 0.01 0.01 0.01 0.01 0.01 0.01 0.01 0.02 0.02 0.01 0.01 0.01 0.01 0.01 0.02 0.02 0.02 0.02 0.02 0.02 0.02 0.02 0.02 0.03 0.03 0.03 0.04 0.03 0.03 0.03 0.03 0.01 0.02 0.02 0.02
MSLP
1011.23 1011.27 1011.24 1011.17 1011.07 1010.97 1010.89 1010.83 1010.81 1010.82 1010.85 1010.90 1010.96 1011.03 1011.13 1011.25 1011.40 1011.59 1011.81 1012.05 1012.31 1012.58 1012.84 1013.10 1013.35 1013.60 1013.86 1014.11 1014.36 1014.61 1014.85 1015.06 1015.26 1015.44 1015.60 1015.76 1015.91 1016.07 1016.24 1016.40 1016.55 1016.70 1016.83
1011.20 1011.23 1011.20 1011.12 1011.02 1010.92 1010.83 1010.77 1010.75 1010.78 1010.84 1010.93 1011.03 1011.14 1011.25 1011.37 1011.49 1011.62 1011.77 1011.94 1012.14 1012.37 1012.62 1012.90 1013.19 1013.49 1013.79 1014.09 1014.36 1014.61 1014.83 1015.02 1015.19 1015.35 1015.51 1015.67 1015.84 1016.01 1016.19 1016.37 1016.53 1016.68 1016.82
1011.18 1011.20 1011.18 1011.12 1011.03 1010.93 1010.85 1010.79 1010.79 1010.83 1010.91 1011.04 1011.18 1011.33 1011.46 1011.57 1011.66 1011.73 1011.80 1011.88 1012.00 1012.16 1012.37 1012.63 1012.94 1013.28 1013.62 1013.96 1014.26 1014.52 1014.74 1014.93 1015.09 1015.23 1015.38 1015.55 1015.72 1015.91 1016.11 1016.30 1016.48 1016.63 1016.77
1011.21 1011.23 1011.23 1011.20 1011.14 1011.07 1011.00 1010.96 1010.95 1011.00 1011.10 1011.25 1011.42 1011.59 1011.74 1011.85 1011.91 1011.93 1011.92 1011.91 1011.93 1012.00 1012.15 1012.38 1012.67 1013.02 1013.39 1013.75 1014.08 1014.36 1014.59 1014.77 1014.93 1015.07 1015.21 1015.38 1015.56 1015.76 1015.96 1016.16 1016.34 1016.50 1016.64
1011.31 1011.35 1011.38 1011.40 1011.39 1011.36 1011.31 1011.27 1011.25 1011.29 1011.39 1011.54 1011.72 1011.92 1012.08 1012.20 1012.25 1012.23 1012.15 1012.06 1011.99 1011.98 1012.05 1012.21 1012.47 1012.79 1013.16 1013.52 1013.86 1014.15 1014.39 1014.58 1014.73 1014.86 1015.01 1015.16 1015.34 1015.54 1015.74 1015.93 1016.11 1016.27 1016.41
1011.48 1011.54 1011.63 1011.71 1011.75 1011.76 1011.74 1011.69 1011.66 1011.68 1011.75 1011.89 1012.07 1012.28 1012.46 1012.60 1012.65 1012.62 1012.52 1012.37 1012.23 1012.14 1012.12 1012.21 1012.41 1012.69 1013.02 1013.36 1013.69 1013.97 1014.20 1014.38 1014.52 1014.65 1014.78 1014.92 1015.09 1015.27 1015.45 1015.63 1015.79 1015.93 1016.05
1011.70 1011.79 1011.93 1012.07 1012.18 1012.23 1012.23 1012.19 1012.13 1012.11 1012.15 1012.26 1012.43 1012.64 1012.85 1013.02 1013.10 1013.09 1012.99 1012.83 1012.65 1012.50 1012.42 1012.43 1012.56 1012.77 1013.04 1013.33 1013.61 1013.86 1014.06 1014.22 1014.35 1014.45 1014.57 1014.69 1014.83 1014.98 1015.13 1015.27 1015.40 1015.51 1015.60
1011.94 1012.06 1012.25 1012.45 1012.62 1012.71 1012.73 1012.68 1012.60 1012.54 1012.54 1012.61 1012.77 1012.99 1013.22 1013.43 1013.56 1013.60 1013.53 1013.39 1013.21 1013.04 1012.92 1012.87 1012.92 1013.06 1013.25 1013.47 1013.69 1013.88 1014.04 1014.16 1014.25 1014.33 1014.41 1014.51 1014.62 1014.73 1014.84 1014.93 1015.01 1015.06 1015.11
1012.19 1012.33 1012.56 1012.80 1013.02 1013.14 1013.18 1013.13 1013.03 1012.94 1012.89 1012.94 1013.08 1013.30 1013.55 1013.80 1013.99 1014.09 1014.09 1014.00 1013.85 1013.69 1013.55 1013.47 1013.47 1013.53 1013.65 1013.79 1013.93 1014.05 1014.14 1014.20 1014.25 1014.30 1014.35 1014.42 1014.49 1014.56 1014.63 1014.67 1014.68 1014.68 1014.68
1012.42 1012.58 1012.82 1013.10 1013.34 1013.50 1013.55 1013.51 1013.40 1013.29 1013.22 1013.24 1013.36 1013.57 1013.84 1014.12 1014.36 1014.52 1014.58 1014.55 1014.46 1014.34 1014.22 1014.13 1014.10 1014.11 1014.16 1014.23 1014.29 1014.33 1014.35 1014.36 1014.36 1014.37 1014.40 1014.44 1014.48 1014.53 1014.55 1014.54 1014.51 1014.44 1014.37
1012.64 1012.80 1013.05 1013.34 1013.60 1013.78 1013.85 1013.82 1013.72 1013.61 1013.53 1013.53 1013.63 1013.83 1014.09 1014.38 1014.64 1014.84 1014.96 1014.99 1014.96 1014.89 1014.81 1014.75 1014.71 1014.71 1014.71 1014.72 1014.71 1014.69 1014.65 1014.60 1014.56 1014.54 1014.54 1014.57 1014.61 1014.63 1014.63 1014.59 1014.51 1014.39 1014.26
1012.85 1013.00 1013.25 1013.53 1013.80 1014.00 1014.09 1014.09 1014.02 1013.92 1013.85 1013.84 1013.93 1014.10 1014.33 1014.59 1014.84 1015.05 1015.19 1015.27 1015.29 1015.28 1015.25 1015.24 1015.23 1015.23 1015.22 1015.20 1015.15 1015.08 1014.99 1014.90 1014.82 1014.78 1014.78 1014.80 1014.84 1014.87 1014.87 1014.82 1014.71 1014.56 1014.38
1013.05 1013.19 1013.43 1013.71 1013.98 1014.19 1014.31 1014.35 1014.32 1014.26 1014.21 1014.20 1014.26 1014.39 1014.58 1014.79 1014.99 1015.17 1015.30 1015.38 1015.44 1015.48 1015.52 1015.56 1015.61 1015.64 1015.66 1015.63 1015.57 1015.46 1015.34 1015.22 1015.12 1015.07 1015.06 1015.10 1015.16 1015.21 1015.23 1015.19 1015.08 1014.91 1014.70
1013.24 1013.39 1013.61 1013.88 1014.14 1014.37 1014.53 1014.61 1014.63 1014.62 1014.60 1014.61 1014.66 1014.75 1014.86 1015.00 1015.12 1015.23 1015.32 1015.39 1015.46 1015.54 1015.64 1015.75 1015.86 1015.95 1016.00 1016.00 1015.94 1015.83 1015.69 1015.54 1015.43 1015.37 1015.37 1015.42 1015.50 1015.58 1015.64 1015.63 1015.54 1015.38 1015.17
1013.42 1013.57 1013.79 1014.05 1014.32 1014.56 1014.75 1014.88 1014.97 1015.01 1015.04 1015.06 1015.10 1015.15 1015.20 1015.24 1015.28 1015.30 1015.33 1015.36 1015.43 1015.53 1015.67 1015.85 1016.02 1016.18 1016.29 1016.33 1016.29 1016.18 1016.03 1015.87 1015.74 1015.67 1015.66 1015.72 1015.83 1015.94 1016.03 1016.07 1016.02 1015.89 1015.69
1013.57 1013.75 1013.97 1014.23 1014.50 1014.76 1014.98 1015.16 1015.30 1015.40 1015.48 1015.53 1015.57 1015.58 1015.57 1015.54 1015.49 1015.43 1015.39 1015.38 1015.43 1015.54 1015.72 1015.94 1016.19 1016.40 1016.57 1016.64 1016.63 1016.53 1016.37 1016.20 1016.05 1015.95 1015.93 1015.99 1016.10 1016.23 1016.35 1016.42 1016.42 1016.33 1016.16
1013.70 1013.90 1014.14 1014.41 1014.69 1014.96 1015.21 1015.43 1015.62 1015.78 1015.90 1015.98 1016.02 1016.02 1015.98 1015.89 1015.77 1015.65 1015.55 1015.50 1015.53 1015.64 1015.84 1016.11 1016.40 1016.66 1016.87 1016.98 1016.98 1016.89 1016.72 1016.53 1016.35 1016.22 1016.17 1016.19 1016.29 1016.42 1016.55 1016.64 1016.67 1016.62 1016.49
1013.78 1014.03 1014.31 1014.59 1014.88 1015.17 1015.44 1015.69 1015.91 1016.10 1016.26 1016.37 1016.43 1016.43 1016.37 1016.26 1016.11 1015.95 1015.81 1015.74 1015.76 1015.87 1016.08 1016.37 1016.68 1016.97 1017.21 1017.34 1017.35 1017.26 1017.08 1016.86 1016.64 1016.47 1016.37 1016.35 1016.40 1016.51 1016.62 1016.71 1016.75 1016.73 1016.64
1013.84 1014.15 1014.46 1014.78 1015.09 1015.39 1015.67 1015.92 1016.16 1016.37 1016.55 1016.68 1016.76 1016.78 1016.73 1016.62 1016.47 1016.30 1016.16 1016.09 1016.10 1016.21 1016.42 1016.70 1017.02 1017.32 1017.56 1017.70 1017.71 1017.61 1017.42 1017.18 1016.92 1016.70 1016.55 1016.47 1016.47 1016.52 1016.59 1016.65 1016.68 1016.66 1016.59
1013.87 1014.25 1014.62 1014.98 1015.32 1015.62 1015.90 1016.15 1016.38 1016.58 1016.76 1016.90 1017.00 1017.04 1017.01 1016.93 1016.81 1016.67 1016.55 1016.49 1016.50 1016.61 1016.81 1017.07 1017.38 1017.66 1017.89 1018.02 1018.03 1017.93 1017.73 1017.47 1017.19 1016.93 1016.73 1016.59 1016.52 1016.50 1016.51 1016.52 1016.51 1016.48 1016.40
1013.91 1014.36 1014.80 1015.20 1015.57 1015.88 1016.15 1016.38 1016.58 1016.75 1016.91 1017.04 1017.15 1017.21 1017.22 1017.18 1017.11 1017.02 1016.93 1016.89 1016.91 1017.00 1017.18 1017.42 1017.69 1017.94 1018.15 1018.26 1018.27 1018.18 1017.99 1017.73 1017.44 1017.16 1016.92 1016.73 1016.60 1016.50 1016.44 1016.38 1016.32 1016.24 1016.14
1013.94 1014.48 1014.99 1015.45 1015.85 1016.17 1016.42 1016.61 1016.77 1016.90 1017.02 1017.13 1017.23 1017.30 1017.35 1017.36 1017.34 1017.30 1017.25 1017.23 1017.26 1017.34 1017.49 1017.68 1017.91 1018.12 1018.29 1018.40 1018.41 1018.33 1018.16 1017.93 1017.66 1017.39 1017.13 1016.91 1016.72 1016.57 1016.43 1016.30 1016.17 1016.02 1015.88
1013.99 1014.60 1015.19 1015.70 1016.13 1016.46 1016.69 1016.85 1016.96 1017.03 1017.10 1017.18 1017.26 1017.34 1017.42 1017.47 1017.50 1017.50 1017.50 1017.50 1017.53 1017.59 1017.70 1017.84 1018.01 1018.18 1018.32 1018.41 1018.43 1018.37 1018.24 1018.05 1017.83 1017.58 1017.34 1017.11 1016.90 1016.70 1016.50 1016.31 1016.10 1015.89 1015.69
1014.03 1014.72 1015.37 1015.93 1016.39 1016.72 1016.94 1017.06 1017.12 1017.15 1017.17 1017.21 1017.28 1017.36 1017.45 1017.53 1017.60 1017.64 1017.66 1017.68 1017.69 1017.73 1017.79 1017.88 1017.99 1018.11 1018.21 1018.29 1018.32 1018.29 1018.21 1018.08 1017.92 1017.72 1017.52 1017.30 1017.09 1016.87 1016.63 1016.39 1016.13 1015.86 1015.60
1014.07 1014.81 1015.51 1016.11 1016.59 1016.92 1017.13 1017.23 1017.25 1017.24 1017.23 1017.24 1017.28 1017.36 1017.46 1017.56 1017.65 1017.72 1017.75 1017.77 1017.76 1017.76 1017.78 1017.81 1017.86 1017.93 1018.00 1018.06 1018.10 1018.10 1018.07 1017.99 1017.89 1017.75 1017.59 1017.42 1017.22 1017.00 1016.76 1016.49 1016.20 1015.89 1015.58
1014.08 1014.86 1015.58 1016.19 1016.68 1017.01 1017.21 1017.30 1017.31 1017.28 1017.25 1017.24 1017.28 1017.36 1017.46 1017.57 1017.67 1017.74 1017.78 1017.77 1017.75 1017.71 1017.67 1017.64 1017.64 1017.66 1017.69 1017.73 1017.77 1017.79 1017.79 1017.76 1017.70 1017.62 1017.51 1017.38 1017.21 1017.02 1016.79 1016.53 1016.23 1015.91 1015.59
Thickness
5771 5771 5771 5770 5770 5769 5768 5767 5766 5765 5764 5763 5762 5761 5760 5758 5757 5756 5754 5753 5751 5750 5748 5746 5745 5743 5742 5740 5739 5737 5736 5735 5733 5732 5730 5729 5728 5727 5725 5724 5723 5721 5720
5772 5771 5770 5770 5769 5768 5767 5766 5765 5764 5763 5762 5761 5760 5759 5757 5756 5754 5753 5752 5750 5749 5747 5746 5744 5743 5742 5740 5739 5737 5736 5734 5733 5731 5729 5728 5727 5726 5724 5723 5721 5720 5719
5773 5772 5771 5770 5769 5768 5767 5766 5764 5763 5762 5761 5760 5759 5758 5756 5755 5753 5751 5750 5749 5747 5746 5745 5744 5743 5742 5740 5738 5737 5735 5733 5732 5730 5728 5727 5726 5725 5723 5721 5720 5719 5717
5774 5772 5771 5770 5770 5768 5766 5765 5764 5762 5760 5759 5758 5757 5756 5755 5753 5752 5750 5749 5747 5746 5745 5744 5743 5742 5741 5739 5738 5736 5734 5732 5730 5729 5727 5726 5724 5723 5722 5720 5718 5717 5715
5774 5772 5770 5770 5769 5768 5766 5765 5762 5760 5758 5757 5756 5755 5754 5752 5752 5751 5749 5748 5747 5745 5744 5742 5741 5740 5739 5738 5736 5735 5733 5731 5729 5728 5726 5724 5723 5721 5720 5718 5716 5715 5713
5774 5772 5771 5769 5768 5766 5764 5763 5760 5759 5758 5756 5755 5752 5751 5751 5750 5749 5748 5747 5746 5744 5743 5741 5739 5738 5737 5736 5735 5734 5732 5730 5728 5726 5724 5723 5722 5720 5719 5717 5715 5713 5712
5774 5772 5771 5769 5768 5765 5763 5762 5759 5756 5755 5755 5750 5746 5746 5748 5747 5747 5747 5746 5744 5743 5741 5739 5738 5736 5735 5734 5733 5732 5730 5729 5727 5725 5723 5722 5721 5719 5717 5715 5713 5711 5710
5774 5773 5771 5769 5768 5765 5762 5761 5758 5754 5753 5753 5748 5741 5736 5738 5742 5745 5744 5743 5742 5741 5739 5738 5736 5735 5733 5732 5731 5730 5728 5726 5725 5723 5722 5721 5719 5717 5716 5714 5712 5710 5708
5774 5773 5771 5770 5768 5766 5762 5761 5759 5755 5750 5750 5751 5744 5735 5730 5734 5738 5740 5741 5740 5739 5738 5736 5734 5733 5732 5730 5729 5728 5727 5725 5724 5722 5721 5719 5717 5715 5714 5712 5710 5709 5707
5774 5773 5772 5770 5768 5766 5763 5761 5760 5757 5753 5748 5749 5748 5746 5741 5733 5730 5734 5736 5737 5737 5736 5735 5733 5731 5730 5728 5728 5727 5725 5724 5722 5721 5720 5718 5716 5714 5712 5710 5708 5706 5705
5773 5772 5771 5770 5768 5765 5763 5761 5759 5757 5754 5750 5748 5746 5744 5741 5739 5732 5727 5730 5732 5734 5734 5733 5732 5730 5729 5728 5726 5726 5724 5722 5720 5719 5717 5716 5714 5712 5710 5708 5706 5704 5702
5771 5771 5770 5768 5767 5765 5762 5761 5759 5757 5754 5752 5750 5747 5744 5740 5737 5734 5728 5727 5727 5729 5731 5732 5730 5729 5728 5726 5725 5724 5722 5720 5718 5716 5715 5713 5711 5710 5708 5706 5703 5701 5699
5768 5768 5769 5767 5765 5764 5762 5760 5758 5756 5754 5752 5750 5748 5746 5744 5742 5738 5732 5728 5726 5726 5728 5728 5729 5727 5726 5725 5723 5722 5720 5718 5716 5714 5712 5710 5708 5706 5704 5702 5700 5698 5696
5768 5768 5767 5765 5764 5763 5762 5760 5757 5755 5754 5752 5750 5748 5746 5745 5744 5741 5736 5730 5723 5721 5722 5723 5725 5725 5724 5723 5722 5720 5718 5716 5714 5711 5709 5707 5705 5703 5701 5699 5697 5694 5692
5768 5767 5765 5764 5763 5762 5760 5758 5755 5754 5752 5751 5749 5748 5746 5745 5744 5742 5739 5735 5727 5718 5716 5720 5721 5724 5723 5721 5720 5718 5716 5713 5711 5708 5706 5703 5701 5699 5697 5694 5692 5690 5688
5767 5765 5763 5762 5760 5759 5758 5756 5753 5752 5750 5749 5748 5746 5744 5743 5742 5741 5738 5736 5732 5726 5718 5719 5720 5721 5721 5720 5717 5715 5713 5710 5708 5705 5702 5700 5698 5695 5693 5690 5688 5686 5684
5765 5763 5761 5760 5758 5757 5756 5754 5751 5750 5748 5747 5746 5744 5742 5742 5740 5739 5737 5735 5732 5728 5720 5718 5719 5719 5718 5716 5714 5712 5709 5707 5704 5702 5699 5697 5695 5692 5690 5687 5684 5682 5679
5763 5761 5759 5758 5756 5755 5754 5752 5749 5748 5746 5744 5743 5742 5740 5740 5737 5736 5734 5732 5730 5728 5721 5715 5715 5715 5714 5713 5711 5708 5706 5704 5701 5699 5696 5694 5691 5689 5686 5683 5680 5677 5675
5760 5759 5757 5755 5754 5753 5751 5750 5748 5746 5744 5742 5741 5739 5737 5736 5733 5732 5730 5729 5727 5725 5721 5715 5711 5711 5710 5709 5706 5704 5702 5700 5698 5696 5693 5691 5688 5685 5682 5679 5676 5673 5671
5758 5756 5755 5753 5752 5750 5748 5747 5745 5743 5741 5739 5738 5737 5735 5734 5731 5730 5728 5725 5723 5720 5716 5712 5708 5706 5705 5704 5701 5697 5694 5694 5692 5692 5689 5687 5684 5681 5678 5675 5672 5670 5667
5756 5754 5752 5750 5749 5747 5746 5744 5742 5740 5737 5735 5735 5734 5733 5732 5730 5729 5726 5723 5720 5716 5712 5708 5704 5701 5698 5696 5694 5693 5689 5688 5687 5686 5683 5681 5679 5676 5673 5671 5668 5666 5663
5753 5751 5749 5747 5745 5745 5743 5742 5739 5737 5734 5732 5730 5730 5730 5728 5727 5726 5724 5722 5719 5713 5708 5704 5700 5696 5695 5693 5692 5689 5685 5681 5679 5681 5677 5675 5673 5670 5668 5666 5664 5661 5658
5751 5748 5746 5744 5742 5741 5740 5738 5737 5734 5731 5729 5727 5725 5725 5724 5722 5720 5719 5718 5715 5713 5710 5705 5699 5696 5694 5692 5689 5685 5681 5678 5675 5676 5672 5668 5667 5664 5663 5661 5659 5657 5654
5748 5745 5743 5741 5738 5738 5736 5734 5732 5730 5727 5725 5723 5721 5719 5717 5717 5715 5713 5711 5709 5707 5705 5703 5700 5698 5695 5692 5688 5684 5679 5675 5673 5671 5668 5662 5661 5659 5658 5656 5654 5652 5649
5746 5743 5741 5738 5735 5734 5733 5731 5728 5724 5721 5720 5719 5717 5715 5713 5713 5711 5708 5705 5702 5702 5702 5700 5697 5695 5692 5689 5685 5679 5673 5668 5664 5663 5662 5658 5655 5652 5651 5649 5648 5646 5643
5744 5742 5738 5736 5733 5730 5729 5727 5723 5720 5715 5713 5712 5711 5710 5708 5708 5705 5702 5699 5695 5695 5694 5693 5690 5689 5686 5683 5680 5675 5671 5664 5659 5656 5657 5653 5650 5646 5643 5644 5642 5639 5636